This is the latest recevied weather packets stored in our database for station/object KD2RHT-13. If no packets are shown the sender has not sent any weather packets the latest 10 day(s).
| Time | Temp. | Humidity | Pressure | Rain* | Wind** | Luminosity | Snow |
|---|---|---|---|---|---|---|---|
| 1777570629 | 12.22° C | 78% | 1011.4 hPa | 0 mm | - | 536 W/m² | - |
| 1777570326 | 11.67° C | 76% | 1011.4 hPa | 0 mm | - | 308 W/m² | - |
| 1777570022 | 11.67° C | 76% | 1011.4 hPa | 0 mm | - | 368 W/m² | - |
| 1777569718 | 11.67° C | 78% | 1011.1 hPa | 0 mm | - | 289 W/m² | - |
| 1777569413 | 11.11° C | 78% | 1011.1 hPa | 0 mm | - | 832 W/m² | - |
| 1777569110 | 11.11° C | 76% | 1011.4 hPa | 0 mm | - | 359 W/m² | - |
| 1777568808 | 11.67° C | 77% | 1011.4 hPa | 0 mm | - | 257 W/m² | - |
| 1777568505 | 11.11° C | 79% | 1011.1 hPa | 0 mm | - | 832 W/m² | - |
| 1777568201 | 11.67° C | 77% | 1011.1 hPa | 0 mm | - | 718 W/m² | - |
| 1777567898 | 11.67° C | 79% | 1011.1 hPa | 0 mm | - | 960 W/m² | - |
| 1777567594 | 10.56° C | 80% | 1011.1 hPa | 0 mm | - | 866 W/m² | - |
| 1777567292 | 10.56° C | 80% | 1011.1 hPa | 0 mm | - | 317 W/m² | - |
| 1777566990 | 10.56° C | 80% | 1011.1 hPa | 0 mm | - | 237 W/m² | - |
| 1777566687 | 11.11° C | 81% | 1011.4 hPa | 0 mm | - | 250 W/m² | - |
| 1777566385 | 11.67° C | 79% | 1011.1 hPa | 0 mm | - | 954 W/m² | - |
| 1777566082 | 11.11° C | 82% | 1011.1 hPa | 0 mm | - | 826 W/m² | - |
| 1777565777 | 11.11° C | 80% | 1011.4 hPa | 0 mm | - | 446 W/m² | - |
| 1777565474 | 11.67° C | 79% | 1010.7 hPa | 0 mm | - | 450 W/m² | - |
| 1777565171 | 11.67° C | 80% | 1010.7 hPa | 0 mm | - | 659 W/m² | - |
| 1777564867 | 11.67° C | 81% | 1011.1 hPa | 0 mm | - | 468 W/m² | - |
| 1777564567 | 10.56° C | 84% | 1011.1 hPa | 0 mm | - | 1030 W/m² | - |
| 1777564263 | 10.56° C | 84% | 1011.1 hPa | 0 mm | - | 573 W/m² | - |
| 1777563959 | 8.89° C | 86% | 1011.1 hPa | 0 mm | - | 304 W/m² | - |
| 1777563655 | 8.89° C | 88% | 1010.7 hPa | 0 mm | - | 246 W/m² | - |
| 1777563349 | 8.89° C | 88% | 1010.7 hPa | 0 mm | - | 235 W/m² | - |
* Rain latest hour (hover to see other rain measurements)
** Current wind speed in m/s (hover to see current wind gust speed)